Showing default

ORBCOMM FM 19, 25415

Orbit data source: Space-Track

ORBCOMM FM 19, 25415 is a payload satellite owned by Orbcomm (US) in LEO that was launched on Sun, 02 Aug 1998 UTC via a PEGASUS XL/HAPS launch vehicle from the Pegasus Launch, Eastern Range Air Space (ERAS). Payload-class satellites include a variety of spacecraft equipped with specific instruments for various scientific and technological missions. These include communications satellites like Starlink; space stations such as the ISS; scientific satellites like the Hubble; Earth observation satellites from companies like Planet Labs, Umbra, and HawkEye 360; GPS; miniature CubeSats for education and research; and military/defense satellites.

Loading next visibility...
Identifier
25415, 1998-046C
Orbit
LEO
Country
Flag of USUS / ORB
Related business
Manufacturer
OSC-Germantown
Mission
Operational Commercial Communications
Bus & Motor
MICROSTAR, Unknown motor
Mass
42 kg wet, 42 kg dry
Launch date (UTC)
1998-08-02 (27 years ago)
Launch vehicle
PEGASUS XL/HAPS
Launch site
Pegasus Launch, Eastern Range Air Space (ERAS)
Object type
Payload
Rocket body
Debris
Shape & HBR
Cyl + 2 Pan, 4.2 m
Radar Cross Section
1.484 m², Medium (>0.1 m² and < 1m²)

Expand to show TLE details & history
Last TLE update: 13 hours ago

TLE from 13 hours ago
0 ORBCOMM FM 19
1 25415U 98046C   25346.72698554  .00002129  00000-0  72937-3 0  9995
2 25415  44.9941  49.5456 0001902 136.3066  15.7073 14.38973411429919
Epoch: 2025-12-12T17:26Z
TLE epoch observation values (Epoch: 2025-12-12T17:26:51.550Z)
Latitude
19.42615°
Longitude
-134.37349°
Altitude
760.122 km
Speed
7.478 km/s
True Right ascension
13h 56m 01s
True Declination
19° 19' 07"
Sunlit
Object was in daylight at epoch
Visualization orbit readout
Latitude
Unknown
Longitude
Unknown
Altitude
Unknown
Speed
Unknown
Apparent Right ascension
Unknown
Apparent Declination
Unknown
Sunlit
N/A
Visualization observer readout
Local Sidereal Time
05:22:31
Azimuth
Unknown
Elevation
Unknown
Doppler factor
Unknown
Orbital elements
Apogee altitude
764.798 km
Perigee altitude
762.082 km
Semi-major axis
7,141.577 km
Eccentricity
0.00019
Inclination
44.9941°
RAAN
49.5456°
Arg. of periapsis
136.3066°
True anomaly
15.7132°
Mean anomaly
15.7073°
Eccentric anomaly
15.71025°
Mean motion
3.59627 °/min
Orbital period
100.1 mins
BSTAR
0.00072937
Loading maneuver chart data...
Computing Atmospheric mass density...

Documentation

Showing up to 5 results
|